Weather History for Big Piney, WY

Change the Weather History Date:

Friday, March 29, 2013

  Actual Average Record
Temperature  
Mean Temperature 40 °F 32 °F  
Max Temperature 54 °F 47 °F 58 °F (2004)
Min Temperature 26 °F 18 °F 4 °F (1980)
Degree Days  
Heating Degree Days 25 33  
Month to date heating degree days 1062 1108  
Since 1 July heating degree days 7926 8631  
Cooling Degree Days 0 0  
Month to date cooling degree days 0 0  
Year to date cooling degree days 0 0  
Moisture  
Dew Point 27 °F    
Average Humidity 64    
Maximum Humidity 92    
Minimum Humidity 35    
Precipitation  
Precipitation 0.00 in 0.02 in 0.12 in (1989)
Month to date precipitation 0.03 0.40  
Year to date precipitation 0.19 1.06  
Sea Level Pressure  
Sea Level Pressure 30.11 in    
Wind  
Wind Speed 6 mph (NNW)    
Max Wind Speed 22 mph    
Max Gust Speed 28 mph    
Visibility 10 miles    
Events      
T = Trace of Precipitation, MM = Missing Value Source: NWS Daily Summary

Daily Weather History Graph

Daily Weather History Graph

Search for Another Location

Airport:

Trip Planner

Search our weather history database for the weather conditions in past years. The results will help you decide how hot, cold, wet, or windy it might be!

Date:

Astronomy

Mar. 29, 2013 Rise Set
Actual Time 7:07 AM MDT 7:43 PM MDT
Civil Twilight 6:39 AM MDT 8:11 PM MDT
Nautical Twilight 6:05 AM MDT 8:45 PM MDT
Astronomical Twilight 5:31 AM MDT 9:20 PM MDT
Moon 10:52 PM MDT (3/29) 8:14 AM MDT (3/29)
Length of Visible Light 13h 32m
Length of Day
12h 35m
Waning Gibbous, 93% of the Moon is Illuminated
Mar 29
Waning Gibbous
Apr 2
Last Quarter
Apr 10
New
Apr 18
First Quarter
Apr 25
Full

Hourly Weather History & Observations

Time (MDT) Temp. Windchill Dew Point Humidity Pressure Visibility Wind Dir Wind Speed Gust Speed Precip Events Conditions
12:53 AM 32.0 °F 26.4 °F 26.1 °F 79% 30.06 in 10.0 mi NE 5.8 mph - N/A   Clear
1:53 AM 28.9 °F - 24.1 °F 82% 30.06 in 10.0 mi Calm Calm - N/A   Clear
2:53 AM 30.0 °F - 25.0 °F 82% 30.04 in 10.0 mi Calm Calm - N/A   Partly Cloudy
3:53 AM 30.0 °F - 24.1 °F 79% 30.04 in 10.0 mi Calm Calm - N/A   Scattered Clouds
4:53 AM 28.9 °F - 25.0 °F 85% 30.05 in 10.0 mi Calm Calm - N/A   Overcast
5:53 AM 28.0 °F - 25.0 °F 88% 30.07 in 10.0 mi Calm Calm - N/A   Overcast
6:53 AM 30.0 °F - 26.1 °F 85% 30.09 in 10.0 mi Calm Calm - N/A   Overcast
7:53 AM 28.9 °F - 25.0 °F 85% 30.14 in 10.0 mi Calm Calm - N/A   Overcast
8:53 AM 36.0 °F - 27.0 °F 70% 30.13 in 10.0 mi Calm Calm - N/A   Overcast
9:53 AM 39.9 °F 37.8 °F 28.9 °F 65% 30.12 in 10.0 mi Variable 3.5 mph - N/A   Clear
10:53 AM 46.0 °F 44.8 °F 28.9 °F 51% 30.12 in 10.0 mi Variable 3.5 mph - N/A   Clear
11:53 AM 48.9 °F - 28.9 °F 46% 30.11 in 10.0 mi Variable 6.9 mph - N/A   Mostly Cloudy
12:53 PM 48.9 °F - 28.9 °F 46% 30.12 in 10.0 mi NW 18.4 mph - N/A   Overcast
1:53 PM 50.0 °F - 27.0 °F 41% 30.12 in 10.0 mi NW 17.3 mph 26.5 mph N/A   Overcast
2:53 PM 53.1 °F - 27.0 °F 37% 30.08 in 10.0 mi NW 11.5 mph 20.7 mph N/A   Partly Cloudy
3:53 PM 51.1 °F - 27.0 °F 39% 30.09 in 10.0 mi North 16.1 mph 23.0 mph N/A   Mostly Cloudy
4:53 PM 51.1 °F - 26.1 °F 38% 30.11 in 10.0 mi WNW 17.3 mph 21.9 mph N/A   Mostly Cloudy
5:53 PM 50.0 °F - 25.0 °F 38% 30.12 in 10.0 mi WNW 6.9 mph - N/A   Scattered Clouds
6:53 PM 46.9 °F - 26.1 °F 44% 30.12 in 10.0 mi North 5.8 mph - N/A   Partly Cloudy
7:53 PM 39.9 °F 32.1 °F 30.9 °F 70% 30.17 in 10.0 mi NNE 13.8 mph - N/A   Scattered Clouds
8:53 PM 36.0 °F 30.3 °F 30.9 °F 82% 30.17 in 10.0 mi NE 6.9 mph - N/A   Partly Cloudy
9:53 PM 34.0 °F 29.8 °F 28.9 °F 82% 30.17 in 10.0 mi NNW 4.6 mph - N/A   Clear
10:53 PM 30.0 °F 24.1 °F 28.0 °F 92% 30.17 in 10.0 mi NW 5.8 mph - N/A   Clear
11:53 PM 28.9 °F 21.1 °F 27.0 °F 92% 30.15 in 10.0 mi NNW 8.1 mph - N/A   Clear